Location: Stanford
(52.2833°N, 2.4333°W)
Time: 02:20:09
(UTC+00:00)

X-37B - Pass Details

Date: 22 January 2021
Orbit: 383 x 391 km, 45.0° (Epoch: 27 February)

Event Time Altitude Azimuth Distance (km) Brightness Sun altitude
Rises 18:43:55 0° 234° (SW) 2,271 5.6 -18.7°
Reaches altitude 10° 18:46:21 10° 215° (SW) 1,419 4.0 -19.1°
Enters shadow 18:48:34 19° 171° (S) 1,007 2.6 -19.4°
